TimeCST,TemperatureF,Dew PointF,Humidity,Sea Level PressureIn,VisibilityMPH,Wind Direction,Wind SpeedMPH,Gust SpeedMPH,PrecipitationIn,Events,Conditions,WindDirDegrees,DateUTC
12:53 AM,43.0,37.9,82,30.39,10.0,WSW,5.8,-,0.00,,Overcast,240,2013-01-05 06:53:00
1:53 AM,42.1,39.0,89,30.38,7.0,WSW,4.6,-,0.00,,Overcast,250,2013-01-05 07:53:00
2:53 AM,42.1,39.0,89,30.40,6.0,WSW,5.8,-,N/A,,Overcast,250,2013-01-05 08:53:00
3:53 AM,42.1,39.0,89,30.39,6.0,West,5.8,-,N/A,,Overcast,260,2013-01-05 09:53:00
4:31 AM,42.8,39.2,87,30.38,6.0,WSW,4.6,-,N/A,,Overcast,240,2013-01-05 10:31:00
4:53 AM,42.1,39.0,89,30.38,6.0,West,3.5,-,N/A,,Overcast,270,2013-01-05 10:53:00
5:53 AM,42.1,39.0,89,30.37,6.0,Calm,Calm,-,N/A,,Overcast,0,2013-01-05 11:53:00
6:53 AM,42.1,37.9,85,30.37,10.0,West,4.6,-,N/A,,Overcast,280,2013-01-05 12:53:00
7:01 AM,42.8,37.4,81,30.36,10.0,Calm,Calm,-,N/A,,Overcast,0,2013-01-05 13:01:00
7:13 AM,42.8,37.4,81,30.36,10.0,Calm,Calm,-,N/A,,Overcast,0,2013-01-05 13:13:00
7:53 AM,42.1,37.9,85,30.37,9.0,Calm,Calm,-,N/A,,Overcast,0,2013-01-05 13:53:00
8:53 AM,43.0,37.9,82,30.38,10.0,Calm,Calm,-,N/A,,Overcast,0,2013-01-05 14:53:00
9:08 AM,42.8,39.2,87,30.37,10.0,Calm,Calm,-,N/A,,Overcast,0,2013-01-05 15:08:00
9:41 AM,44.6,37.4,76,30.38,10.0,West,5.8,-,N/A,,Mostly Cloudy,270,2013-01-05 15:41:00
9:53 AM,45.0,39.0,80,30.39,10.0,SW,4.6,-,N/A,,Mostly Cloudy,230,2013-01-05 15:53:00
10:53 AM,48.0,37.9,68,30.38,10.0,SW,10.4,-,N/A,,Clear,220,2013-01-05 16:53:00
11:53 AM,51.1,37.0,59,30.33,10.0,South,9.2,-,N/A,,Scattered Clouds,190,2013-01-05 17:53:00
12:53 PM,51.1,36.0,56,30.29,10.0,WSW,6.9,-,N/A,,Clear,240,2013-01-05 18:53:00
1:53 PM,54.0,37.0,53,30.26,10.0,SW,4.6,-,N/A,,Scattered Clouds,220,2013-01-05 19:53:00
2:53 PM,55.0,37.0,51,30.24,10.0,South,5.8,-,N/A,,Partly Cloudy,190,2013-01-05 20:53:00
3:53 PM,55.9,37.0,49,30.25,10.0,SW,8.1,-,N/A,,Clear,230,2013-01-05 21:53:00
4:53 PM,54.0,37.0,53,30.25,10.0,SSW,4.6,-,N/A,,Clear,210,2013-01-05 22:53:00
5:53 PM,48.9,37.0,64,30.26,10.0,South,3.5,-,N/A,,Clear,180,2013-01-05 23:53:00
6:53 PM,46.9,37.0,68,30.27,7.0,SSE,3.5,-,N/A,,Clear,160,2013-01-06 00:53:00
7:53 PM,46.9,37.9,71,30.29,10.0,South,4.6,-,N/A,,Clear,180,2013-01-06 01:53:00
8:53 PM,43.0,37.0,80,30.29,10.0,SSE,6.9,-,N/A,,Clear,150,2013-01-06 02:53:00
9:53 PM,39.9,37.0,89,30.30,9.0,South,5.8,-,N/A,,Clear,180,2013-01-06 03:53:00
10:53 PM,37.9,36.0,93,30.30,7.0,South,5.8,-,N/A,,Clear,180,2013-01-06 04:53:00
11:53 PM,37.0,35.1,93,30.31,5.0,SSW,6.9,-,N/A,,Clear,200,2013-01-06 05:53:00